Home > Weather > Whistler > Past weeks

Flag for Canada Weather for the Past 2 Weeks in Whistler, British Columbia, Canada

Now
53 °F

Cool.


Feels Like: 53 °F
Forecast: 48 / 58 °F
Wind: 1 mph from North

Location: Squamish Airport

Current Time: May 4, 2016 at 2:58:03 AM

Latest Report: May 4, 2016 at 2:00 AM


Visibility: N/A

Pressure: 30.07 "Hg (27.73 "Hg at 674m altitude)

Humidity: 95%

Dew Point: 52 °F

Location of WhistlerLocation

Historic Weather in Whistler — Graph

°F

Whistler Temperature Yesterday

Maximum temperature yesterday: 70 °F (at 4:00 PM)
Minimum temperature yesterday: 54 °F (at 5:00 AM)
Average temperature yesterday: 61 °F

High & Low Weather Summary for the Past Weeks

 TemperatureHumidityPressure
High87 °F (Apr 20, 3:00 PM)96% (Apr 24, 8:00 AM)30.37 "Hg (Apr 24, 8:00 AM)
Low31 °F (May 2, 8:00 PM)15% (Apr 20, 3:00 PM)29.59 "Hg (Apr 22, 7:00 AM)
Average57 °F68%29.98 "Hg
* Reported Apr 19 1:00 AM — May 4 1:00 AM, Whistler, Weather by CustomWeather, © 2016

Note: Actual official high and low records may vary slightly from our data, if they occured in-between our weather recording intervals... More about our weather records

Advertising

Whistler Weather History for the Previous 24 Hours

Scroll right to see more
 ConditionsComfort  
Time TempWeatherWind HumidityBarometerVisibility
1:00 AM
Wed, May 4
54 °FCool.No wind93%30.08 "HgN/A
12:00 AM54 °FCool.3 mph93%30.08 "HgN/A
11:00 PM
Tue, May 3
55 °FCool.1 mph91%30.07 "HgN/A
10:00 PM56 °FCool.2 mph89%30.07 "HgN/A
9:00 PM58 °FCool.3 mph80%30.05 "HgN/A
8:00 PM60 °FCool.1 mph70%30.03 "HgN/A
7:00 PM64 °FMild.2 mph60%30.01 "HgN/A
6:00 PM66 °FMild.2 mph58%30.00 "HgN/A
5:00 PM68 °FMild.5 mph55%29.99 "HgN/A
4:00 PM70 °FMild.3 mph52%29.99 "HgN/A
3:00 PM69 °FMild.3 mph55%30.00 "HgN/A
2:00 PM69 °FMild.5 mph56%30.00 "HgN/A
1:00 PM69 °FMild.6 mph57%30.00 "HgN/A
12:00 PM67 °FMild.3 mph65%30.01 "HgN/A
11:00 AM61 °FCool.5 mph75%30.01 "HgN/A
10:00 AM61 °FCool.2 mph74%30.02 "HgN/A
9:00 AM61 °FCool.3 mph72%30.01 "HgN/A
8:00 AM58 °FCool.2 mph73%30.01 "HgN/A
7:00 AM56 °FCool.2 mph76%30.01 "HgN/A
6:00 AM55 °FCool.2 mph80%30.01 "HgN/A
5:00 AM54 °FCool.1 mph87%30.00 "HgN/A
4:00 AM56 °FCool.1 mph83%29.98 "HgN/A
3:00 AM57 °FCool.3 mph76%29.96 "HgN/A
2:00 AM57 °FCool.2 mph82%29.97 "HgN/A
Weather by CustomWeather, © 2016

See weather overviewHow to use our weather pages